Location: Newark
(46.1292°N, 1.0086°W)
Time: 14:32:57
(UTC+00:00)

Transit 4A - Pass Details

Date: 25 November 2019
Orbit: 869 x 975 km, 66.8° (Epoch: 04 December)

Event Time Altitude Azimuth Distance (km) Brightness Sun altitude
Exits shadow 06:15:12 11° 311° (NW) 2,461 9.5 -10.7°
Maximum altitude 06:20:13 36° 249° (WSW) 1,361 8.4 -9.9°
Drops below altitude 10° 06:25:25 10° 184° (S) 2,508 10.4 -9.1°
Sets 06:28:03 0° 176° (S) 3,441 11.2 -8.6°
